CZ-6A DEB, 54468

Orbit data source: Space-Track

CZ-6A DEB, 54468 is space debris in SSO originally from a launch on Fri, 11 Nov 2022 UTC launched from the Taiyaun Space Center, China (TSC). Debris objects in space refer to the collection of defunct objects orbiting the Earth. Examples of debris include non-operational satellites, rocket bodies, and fragments generated from explosions, collisions, or faulty payload assembly.

Loading next visibility...
Identifier
54468, 2022-151GU
Orbit
SSO
Country
Flag of CNCN / PRC
Related business
Manufacturer
SAST
Mission
Spacecraft
Bus & Motor
Unknown
Mass
Unknown
Launch date (UTC)
2022-11-11 (3 years ago)
Launch vehicle
Unknown
Launch site
Taiyaun Space Center, China (TSC)
Object type
Payload
Rocket body
Debris
Shape & HBR
Unknown shape, 0.1 m
Radar Cross Section
Small (<0.1 m²)

Expand to show TLE details & history
Last TLE update: 17 hours ago

TLE from 17 hours ago
0 CZ-6A DEB
1 54468U 22151GU  26129.99784447  .00000528  00000-0  25691-3 0  9991
2 54468  98.7525 143.4560 0053593  97.1192 263.6083 14.21651560180684
Epoch: 2026-05-09T23:56Z
TLE epoch observation values (Epoch: 2026-05-09T23:56:53.762Z)
Latitude
-0.00004°
Longitude
-83.57525°
Altitude
827.188 km
Speed
7.437 km/s
True Right ascension
09h 33m 49s
True Declination
0° 00' 00"
Sunlit
Object was in daylight at epoch
Visualization orbit readout
Latitude
Unknown
Longitude
Unknown
Altitude
Unknown
Speed
Unknown
Apparent Right ascension
Unknown
Apparent Declination
Unknown
Sunlit
N/A
Visualization observer readout
Local Sidereal Time
01:07:00
Azimuth
Unknown
Elevation
Unknown
Doppler factor
Unknown
Orbital elements
Apogee altitude
855.492 km
Perigee altitude
778.371 km
Semi-major axis
7,195.068 km
Eccentricity
0.00536
Inclination
98.7525°
RAAN
143.456°
Arg. of periapsis
97.1192°
True anomaly
262.99845°
Mean anomaly
263.6083°
Eccentric anomaly
263.30333°
Mean motion
3.55624 °/min
Orbital period
101.23 mins
BSTAR
0.00025691
Loading maneuver chart data...
Computing Atmospheric mass density...
Loading historical data...
Loading historical data...
Loading historical data...
Loading historical data...
Loading historical data...
Loading historical data...
Loading historical data...

Documentation

Showing up to 5 results
|